Flag for Switzerland Weather past 2 weeks in Arth, Schwyz, Switzerland

Now
61 °F

Rain. Overcast.


Feels Like: 61 °F
Forecast: 47 / 60 °F
Wind: 1 mph from South

Location: Altdorf

Current Time: Jul 26, 2014 at 9:34:41 PM

Latest Report: Jul 26, 2014 at 8:00 PM


Visibility: 4 mi

Pressure: 30.00 "Hg

Humidity: 94%

Dew point: 59 °F

Location of ArthLocation

Historic Weather in Arth — Graph

°F

Arth temperature yesterday

Maximum temperature yesterday: 78 °F (at 3:00 PM)
Minimum temperature yesterday: 56 °F (at 6:00 AM)
Average temperature yesterday: 66 °F

Past Weeks' High & Low Weather Summary

 TemperatureHumidityPressure
High85 °F (Jul 20, 2:00 AM)96% (Jul 12, 3:00 AM)30.20 "Hg (Jul 12, 3:00 AM)
Low56 °F (Jul 25, 6:00 AM)31% (Jul 19, 8:00 PM)29.75 "Hg (Jul 20, 3:00 AM)
Average67 °F77%29.97 "Hg
* Reported Jul 11 8:00 PM — Jul 26 8:00 PM, Arth, Weather by CustomWeather, © 2014

Note: Actual official high and low records may vary slightly from our data, if they occured in-between our weather recording intervals... More about our weather records

Advertising

Arth weather history for previous 24 hours

 ConditionsComfort  
Time TempWeatherWind HumidityBarometerVisibility
8:00 PM
Jul 26
61 °FRain. Overcast.1 mph94%30.00 "Hg4 mi
7:00 PM62 °FCool.2 mph93%29.98 "HgN/A
6:00 PM62 °FMild.1 mph86%29.98 "HgN/A
5:00 PM63 °FRain. Overcast.2 mph89%29.97 "Hg47 mi
4:00 PM62 °FCool.1 mph92%29.96 "HgN/A
3:00 PM62 °FCool.3 mph91%29.96 "HgN/A
2:00 PM63 °FRain. Overcast.1 mph91%29.95 "Hg3 mi
1:00 PM63 °FMild.3 mph92%29.95 "HgN/A
12:00 PM63 °FMild.3 mph92%29.95 "HgN/A
11:00 AM63 °FRain. Overcast.No wind91%29.95 "Hg9 mi
10:00 AM63 °FMild.2 mph90%29.94 "HgN/A
9:00 AM63 °FMild.1 mph91%29.94 "HgN/A
8:00 AM63 °FLight rain. Overcast.1 mph93%29.94 "Hg12 mi
7:00 AM61 °FCool.No wind94%29.92 "HgN/A
6:00 AM61 °FCool.No wind94%29.91 "HgN/A
5:00 AM61 °FOvercast.No wind94%29.90 "Hg10 mi
4:00 AM61 °FCool.1 mph93%29.90 "HgN/A
3:00 AM61 °FCool.1 mph94%29.91 "HgN/A
2:00 AM62 °FOvercast.2 mph93%29.91 "Hg10 mi
1:00 AM62 °FCool.1 mph93%29.94 "HgN/A
12:00 AM62 °FCool.2 mph93%29.96 "HgN/A
11:00 PM
Jul 25
63 °FLight rain. Low clouds.3 mph91%29.97 "Hg4 mi
10:00 PM63 °FMild.5 mph91%29.94 "HgN/A
9:00 PM64 °FMild.3 mph89%29.90 "HgN/A
Weather by CustomWeather, © 2014

See weather overviewHow to use our weather pages